GSAT0213 (GALILEO 17) (41861 NORAD) Tracking and Keplerian Element Data

This shows tracking and keplerian element data for the satellite.

Feedback or suggestion? Click here.




ElementValue
Catalog41861
NameGSAT0213 (GALILEO 17)
Epoch Orbit4688
Epoch Day158.11321343
Epoch Year2024
RAAN121.6258
Inclination55.0857
Eccentricity0.0005605
Argument of Perigee286.67
Mean Anonmoly73.2085
Mean Motion1.70472881
Decay Rate9E-08
L11 41861U 16069C 24158.11321343 .00000009 00000+0 00000+0 0 9997
L22 41861 55.0857 121.6258 0005605 286.6700 73.2085 1.70472881 46881



Live tracking and technical data element details for GSAT0213 (GALILEO 17) (NORAD 41861). GSAT0213 (GALILEO 17) can be tracked NOW for your location showing map with azimuth and elevation plus other details from your city location.







IsCatalogInMostPopularTable: catalog: 41861, numindb: 701
Update: records affected: 1



GetName: 41861 GSAT0213 (GALILEO 17)

Hit Count: updated at: Fri, 14 Jun 2024 18:49:43 GMT